When you browse on this site, cookies collect data to enhance your experience and personalize the content and advertising you see.
Visit our Privacy Policy to learn more. By continuing to use the site, you agree to this use of cookies and data.
  • Em Portugal
  • Lista de países
  • Para 7 dias
  • Temperatura da água
  • Mapas de satélite
  • Mapa do tempo
  • Widgets de tempo
  • user-avatar
    Iniciar Sessão

    Previsão horária em Shannon

    Hoje, 23 Março, Sábado

    Tempo Temperatura Precipitação Vento Pressão Humidade
    00:00 +6°C° 0 mm 1 m/s 773 mmHg 77%
    01:00 +6°C° 0 mm 1 m/s 774 mmHg 76%
    02:00 +5°C° 0 mm 1 m/s 774 mmHg 76%
    03:00 +5°C° 0 mm 1 m/s 774 mmHg 75%
    04:00 +5°C° 0 mm 1 m/s 774 mmHg 75%
    05:00 +4°C° 0 mm 0 m/s 774 mmHg 74%
    06:00 +5°C° 0 mm 0 m/s 775 mmHg 72%
    07:00 +6°C° 0 mm 0 m/s 775 mmHg 70%
    08:00 +6°C° 0 mm 0 m/s 775 mmHg 68%
    09:00 +8°C° 0 mm 1 m/s 775 mmHg 64%
    10:00 +9°C° 0 mm 1 m/s 776 mmHg 60%
    11:00 +10°C° 0 mm 1 m/s 776 mmHg 57%
    12:00 +10°C° 0 mm 1 m/s 776 mmHg 57%
    13:00 +10°C° 0 mm 1 m/s 776 mmHg 58%
    14:00 +10°C° 0 mm 1 m/s 776 mmHg 58%
    15:00 +9°C° 0 mm 1 m/s 775 mmHg 64%
    16:00 +9°C° 0 mm 1 m/s 775 mmHg 70%
    17:00 +8°C° 0 mm 1 m/s 775 mmHg 75%
    18:00 +7°C° 0 mm 1 m/s 775 mmHg 76%
    19:00 +6°C° 0 mm 1 m/s 776 mmHg 77%
    20:00 +5°C° 0 mm 1 m/s 776 mmHg 78%
    21:00 +5°C° 0 mm 1 m/s 776 mmHg 81%
    22:00 +4°C° 0 mm 1 m/s 776 mmHg 83%
    23:00 +3°C° 0 mm 1 m/s 776 mmHg 85%

    Amanhã, 24 Março, Domingo

    Tempo Temperatura Precipitação Vento Pressão Humidade
    00:00 +3°C° 0 mm 1 m/s 776 mmHg 85%
    01:00 +3°C° 0 mm 1 m/s 776 mmHg 86%
    02:00 +1°C° 0 mm 0 m/s 776 mmHg 86%
    03:00 +2°C° 0 mm 1 m/s 776 mmHg 87%
    04:00 +2°C° 0 mm 1 m/s 776 mmHg 87%
    05:00 +2°C° 0 mm 1 m/s 776 mmHg 87%
    06:00 +4°C° 0 mm 1 m/s 776 mmHg 82%
    07:00 +5°C° 0 mm 2 m/s 777 mmHg 77%
    08:00 +7°C° 0 mm 2 m/s 777 mmHg 72%
    09:00 +8°C° 0 mm 2 m/s 777 mmHg 70%
    10:00 +8°C° 0 mm 3 m/s 777 mmHg 67%
    11:00 +9°C° 0 mm 3 m/s 777 mmHg 65%
    12:00 +9°C° 0 mm 3 m/s 777 mmHg 65%
    13:00 +10°C° 0 mm 3 m/s 777 mmHg 65%
    14:00 +10°C° 0 mm 3 m/s 776 mmHg 65%
    15:00 +9°C° 0 mm 3 m/s 776 mmHg 69%
    16:00 +9°C° 0 mm 3 m/s 776 mmHg 74%
    17:00 +8°C° 0 mm 2 m/s 776 mmHg 78%
    18:00 +6°C° 0 mm 2 m/s 777 mmHg 82%
    19:00 +5°C° 0 mm 2 m/s 777 mmHg 86%
    20:00 +5°C° 0 mm 1 m/s 777 mmHg 90%
    21:00 +4°C° 0 mm 1 m/s 777 mmHg 91%
    22:00 +4°C° 0 mm 1 m/s 777 mmHg 91%
    23:00 +3°C° 0 mm 0 m/s 778 mmHg 91%

    Depois de amanhã, 25 Março, Segunda-feira

    Tempo Temperatura Precipitação Vento Pressão Humidade
    00:00 +3°C° 0 mm 0 m/s 778 mmHg 91%
    01:00 +2°C° 0 mm 0 m/s 777 mmHg 92%
    02:00 +2°C° 0 mm 0 m/s 777 mmHg 92%
    03:00 +2°C° 0 mm 0 m/s 777 mmHg 92%
    04:00 +2°C° 0 mm 0 m/s 777 mmHg 92%
    05:00 +2°C° 0 mm 0 m/s 777 mmHg 92%
    06:00 +4°C° 0 mm 1 m/s 777 mmHg 88%
    07:00 +6°C° 0 mm 1 m/s 777 mmHg 84%
    08:00 +8°C° 0 mm 1 m/s 778 mmHg 79%
    09:00 +9°C° 0 mm 1 m/s 778 mmHg 74%
    10:00 +10°C° 0 mm 1 m/s 778 mmHg 69%
    11:00 +12°C° 0 mm 1 m/s 778 mmHg 64%
    12:00 +12°C° 0 mm 1 m/s 777 mmHg 63%
    13:00 +13°C° 0 mm 2 m/s 777 mmHg 62%
    14:00 +14°C° 0 mm 2 m/s 777 mmHg 61%
    15:00 +13°C° 0 mm 1 m/s 777 mmHg 67%
    16:00 +12°C° 0 mm 1 m/s 776 mmHg 72%
    17:00 +11°C° 0 mm 1 m/s 776 mmHg 78%
    18:00 +10°C° 0 mm 1 m/s 777 mmHg 82%
    19:00 +8°C° 0 mm 1 m/s 777 mmHg 87%
    20:00 +6°C° 0 mm 1 m/s 777 mmHg 91%
    21:00 +6°C° 0 mm 1 m/s 777 mmHg 92%
    22:00 +5°C° 0 mm 1 m/s 777 mmHg 93%
    23:00 +4°C° 0 mm 2 m/s 777 mmHg 94%

    26 Março, Terça-feira

    Tempo Temperatura Precipitação Vento Pressão Humidade
    00:00 +3°C° 0 mm 2 m/s 777 mmHg 94%
    01:00 +3°C° 0 mm 2 m/s 777 mmHg 94%
    02:00 +2°C° 0 mm 2 m/s 777 mmHg 94%
    03:00 +2°C° 0 mm 2 m/s 777 mmHg 95%
    04:00 +2°C° 0 mm 2 m/s 776 mmHg 95%
    05:00 +2°C° 0 mm 2 m/s 776 mmHg 96%
    06:00 +4°C° 0 mm 2 m/s 776 mmHg 92%
    07:00 +7°C° 0 mm 1 m/s 776 mmHg 88%
    08:00 +8°C° 0 mm 1 m/s 776 mmHg 84%
    09:00 +9°C° 0 mm 2 m/s 777 mmHg 78%
    10:00 +12°C° 0 mm 2 m/s 777 mmHg 72%
    11:00 +13°C° 0 mm 2 m/s 777 mmHg 66%
    12:00 +14°C° 0 mm 2 m/s 776 mmHg 65%
    13:00 +15°C° 0 mm 2 m/s 776 mmHg 64%
    14:00 +15°C° 0 mm 2 m/s 776 mmHg 64%
    15:00 +14°C° 0 mm 2 m/s 776 mmHg 70%
    16:00 +13°C° 0 mm 2 m/s 776 mmHg 75%
    17:00 +12°C° 0 mm 2 m/s 776 mmHg 81%
    18:00 +11°C° 0 mm 1 m/s 776 mmHg 85%
    19:00 +9°C° 0 mm 1 m/s 776 mmHg 89%
    20:00 +6°C° 0 mm 0 m/s 777 mmHg 93%
    21:00 +6°C° 0 mm 0 m/s 777 mmHg 94%
    22:00 +6°C° 0 mm 1 m/s 777 mmHg 94%
    23:00 +6°C° 0 mm 1 m/s 777 mmHg 94%

    27 Março, Quarta-feira

    Tempo Temperatura Precipitação Vento Pressão Humidade
    00:00 +6°C° 0 mm 1 m/s 776 mmHg 94%
    01:00 +5°C° 0 mm 1 m/s 776 mmHg 95%
    02:00 +5°C° 0 mm 1 m/s 776 mmHg 95%
    03:00 +5°C° 0 mm 1 m/s 776 mmHg 95%
    04:00 +5°C° 0 mm 1 m/s 776 mmHg 95%
    05:00 +4°C° 0 mm 1 m/s 776 mmHg 94%
    06:00 +6°C° 0 mm 1 m/s 776 mmHg 90%
    07:00 +8°C° 0 mm 1 m/s 777 mmHg 86%
    08:00 +9°C° 0 mm 1 m/s 777 mmHg 81%
    09:00 +10°C° 0 mm 2 m/s 777 mmHg 75%
    10:00 +13°C° 0 mm 2 m/s 777 mmHg 68%
    11:00 +14°C° 0 mm 2 m/s 777 mmHg 62%
    12:00 +15°C° 0 mm 2 m/s 776 mmHg 61%
    13:00 +16°C° 0 mm 2 m/s 776 mmHg 61%
    14:00 +16°C° 0 mm 2 m/s 775 mmHg 61%
    15:00 +15°C° 0 mm 2 m/s 775 mmHg 66%
    16:00 +14°C° 0 mm 2 m/s 775 mmHg 71%
    17:00 +13°C° 0 mm 2 m/s 775 mmHg 77%
    18:00 +10°C° 0 mm 2 m/s 775 mmHg 81%
    19:00 +8°C° 0 mm 2 m/s 775 mmHg 85%
    20:00 +7°C° 0 mm 2 m/s 776 mmHg 89%
    21:00 +6°C° 0 mm 2 m/s 775 mmHg 89%
    22:00 +5°C° 0 mm 2 m/s 775 mmHg 88%
    23:00 +5°C° 0 mm 2 m/s 775 mmHg 88%

    28 Março, Quinta-feira

    Tempo Temperatura Precipitação Vento Pressão Humidade
    00:00 +4°C° 0 mm 2 m/s 775 mmHg 88%
    01:00 +4°C° 0 mm 2 m/s 775 mmHg 88%
    02:00 +4°C° 0 mm 2 m/s 774 mmHg 89%
    03:00 +4°C° 0 mm 2 m/s 774 mmHg 90%
    04:00 +4°C° 0 mm 2 m/s 774 mmHg 91%
    05:00 +4°C° 0 mm 2 m/s 774 mmHg 93%
    06:00 +5°C° 0 mm 3 m/s 774 mmHg 89%
    07:00 +8°C° 0 mm 3 m/s 774 mmHg 84%
    08:00 +10°C° 0 mm 4 m/s 774 mmHg 80%
    09:00 +12°C° 0 mm 4 m/s 774 mmHg 75%
    10:00 +13°C° 0 mm 5 m/s 774 mmHg 70%
    11:00 +15°C° 0 mm 5 m/s 774 mmHg 66%
    12:00 +15°C° 0 mm 5 m/s 773 mmHg 66%
    13:00 +15°C° 0 mm 5 m/s 773 mmHg 66%
    14:00 +15°C° 0 mm 5 m/s 772 mmHg 66%
    15:00 +14°C° 0 mm 4 m/s 772 mmHg 71%
    16:00 +13°C° 0 mm 4 m/s 772 mmHg 75%
    17:00 +12°C° 0 mm 3 m/s 772 mmHg 80%
    18:00 +11°C° 0 mm 3 m/s 772 mmHg 85%
    19:00 +9°C° 0 mm 3 m/s 772 mmHg 89%
    20:00 +8°C° 0 mm 3 m/s 772 mmHg 94%
    21:00 +7°C° 0 mm 3 m/s 772 mmHg 94%
    22:00 +7°C° 0 mm 3 m/s 772 mmHg 94%
    23:00 +7°C° 0 mm 3 m/s 772 mmHg 94%
    Mostrar mais